Location: Kapla
(46.2483°N, 15.0094°E)
Time: 18:29:32
(UTC+00:00)

Cosmos 1727 Rocket - Pass Details

Date: 03 March 2021
Orbit: 961 x 996 km, 82.9° (Epoch: 15 April)

Event Time Altitude Azimuth Distance (km) Brightness Sun altitude
Rises 18:42:20 0° 354° (N) 3,658 7.2 -20.3°
Reaches altitude 10° 18:44:54 10° 359° (N) 2,709 6.5 -20.7°
Maximum altitude 18:50:59 55° 77° (ENE) 1,152 4.0 -21.7°
Enters shadow 18:52:57 40° 130° (SE) 1,401 4.4 -22.1°
